Regional Weather Roundup
Issued by NWS

Home | Current Version | Previous Version | Graphics & Text | Print | Product List | Glossary On
Versions: 1 2 3 4 5 6 7 8 9 10 11 12 13 14 15 16 17 18 19 20 21 22 23 24 25 26
000
ASUS45 KSLC 261010
RWRUT

UTAH REGIONAL WEATHER ROUNDUP
NATIONAL WEATHER SERVICE SALT LAKE CITY UT
400 AM MDT THU MAY 26 2016

UTZ001>011-023>025-261100-

NORTHERN UTAH

CITY           SKY/WX    TMP DP  RH WIND       PRES   REMARKS
BRIGHAM CITY     N/A     45  40  85 CALM      30.01F
HILL AFB       CLEAR     48  39  71 E13       30.01F
LOGAN          CLEAR     39  39 100 CALM      30.04F
OGDEN          CLEAR     47  43  86 W3        30.00F
PROVO AIRPORT  PTCLDY    48  39  71 SE5       30.00S
SALT LAKE CITY PTCLDY    51  45  79 N6        30.00S
VERNAL         CLOUDY    47  35  63 NW3       30.00S
WENDOVER       CLOUDY    55  36  47 NW6       30.02F
HEBER CITY     PTCLDY    34  32  93 CALM      30.02F
WEST JORDAN    CLEAR     46  43  87 NW3       30.01F

$$

UTZ012>022-026-027-261100-

SOUTHERN/CENTRAL UTAH

CITY           SKY/WX    TMP DP  RH WIND       PRES   REMARKS
BLANDING       PTCLDY    45  19  35 NE7       30.01S
BRYCE CANYON   MOCLDY    39  26  59 N10       30.05F WCI  32
CEDAR CITY     PTCLDY    39  30  70 SW3       30.01S
DELTA          PTCLDY    46  41  81 CALM      30.01S
MILFORD        CLEAR     42  33  70 NE6       30.00F
MOAB/CYNLANDS  MOCLDY    58  22  24 E6        29.87R
PRICE          PTCLDY    50  25  37 NW3       29.97S
ST GEORGE      MOSUNNY   64  25  22 CALM      29.91F
KANAB          PTCLDY    55  28  35 NE3       29.99S

$$

REGIONAL REPORTS     COLORADO/ARIZONA

CITY           SKY/WX    TMP DP  RH WIND       PRES   REMARKS
CRAIG, CO      CLOUDY    34  30  85 CALM      30.06S
GRAND JUNCTION CLOUDY    47  27  45 N8        29.92R
RIFLE          CLOUDY    39  28  64 S3        29.98F
MONTROSE       CLEAR     52  20  28 S8        29.97F
CORTEZ         CLEAR     42  23  46 CALM      29.98F
PAGE, AZ       PTCLDY    63  25  23 W6        29.89F
GRAND CANYON   MOCLDY    40  26  57 SW5       30.03S
KINGMAN        CLEAR     53  32  44 MISG      29.94F
FLAGSTAFF      PTCLDY    36  22  56 W3        30.03F

$$

REGIONAL REPORTS    NEVADA/IDAHO/WYOMING

CITY           SKY/WX    TMP DP  RH WIND       PRES   REMARKS
LAS VEGAS, NV  CLEAR     62  32  32 S6        29.85F
ELY            CLOUDY    36  34  92 S5        30.09S WCI  32
ELKO           CLEAR     39  37  92 CALM      30.09S
POCATELLO, ID  CLEAR     40  38  93 N3        30.05S
BURLEY         CLEAR     44  38  79 CALM      30.02S
EVANSTON, WY   CLEAR     38  34  85 N5        30.08F WCI  34
ROCK SPRINGS   CLEAR     37  33  85 SE6       30.06R WCI  32
KEMMERER         N/A     32  32 100 NW6       30.09S WCI  26

$$




USA.gov is the U.S. government's official web portal to all federal, state and local government web resources and services.